Theta_e
309 307 308 310 307 309 307 306 306 306 307 309 309 309 309 310 311 310 311 311 312 313 315 314 314 314 314 314 314 314 315 315 314 314 313 312 312 311 309 308 306 304 303 302
307 307 308 307 307 307 307 308 308 309 308 306 307 309 308 308 309 311 311 311 312 312 313 314 314 314 314 314 314 314 314 314 315 315 314 313 313 311 311 310 308 306 303 302
309 309 307 307 307 308 306 306 308 308 307 305 305 309 307 307 308 309 310 311 311 312 313 315 315 313 313 314 314 314 314 314 314 314 313 312 310 309 309 307 306 306 304 303
307 307 308 307 307 307 310 306 308 308 308 309 307 310 309 312 311 307 309 311 312 314 314 313 313 314 313 313 314 314 313 313 313 312 312 312 313 312 312 311 310 308 306 304
308 308 308 308 308 306 308 308 307 307 307 307 308 308 311 308 309 307 307 311 313 313 312 313 314 314 315 314 314 314 314 313 313 313 312 311 310 312 312 310 310 308 306 304
306 307 306 307 306 306 307 309 307 304 306 309 308 309 309 308 310 310 309 312 312 313 313 314 314 314 314 313 313 314 314 312 312 311 311 312 311 310 310 310 309 308 306 304
306 306 306 307 308 307 308 307 308 308 308 312 307 307 312 310 308 309 309 312 313 311 312 313 313 314 314 313 312 312 312 312 311 309 308 309 309 309 309 309 309 309 307 305
307 315 306 305 307 308 306 307 310 311 309 314 307 309 311 307 309 309 308 311 310 311 311 312 313 313 313 313 312 311 310 311 310 310 308 307 307 307 308 308 308 308 308 307
307 308 305 305 306 307 306 308 307 310 300 305 311 311 310 306 307 307 309 311 308 311 313 311 312 312 313 312 312 310 309 308 309 309 309 309 308 307 308 308 308 307 307 306
309 314 308 306 306 306 306 305 309 308 313 312 312 310 313 311 311 309 305 305 310 312 312 312 309 311 311 311 310 310 310 310 310 309 309 308 309 309 308 308 308 307 307 306
312 312 313 312 308 308 306 307 307 307 311 316 317 315 313 310 308 307 306 309 310 309 307 308 309 309 309 309 309 306 305 305 305 305 306 306 305 304 306 307 307 307 306 305
311 315 315 314 310 306 307 310 309 313 312 309 312 314 312 311 310 308 305 302 304 303 303 303 302 302 303 302 304 306 306 304 304 305 305 304 304 304 304 304 305 305 306 305
311 314 316 313 309 307 310 309 309 311 312 315 315 314 311 311 309 298 298 297 297 296 297 298 299 296 296 297 297 298 300 302 303 304 305 305 304 304 304 305 304 303 303 303
311 313 315 316 313 311 311 311 311 310 311 313 313 314 313 305 299 295 294 293 293 293 292 292 293 293 294 294 294 295 295 296 297 300 302 304 305 305 304 303 303 303 303 303
307 310 311 310 306 306 307 307 306 306 307 308 307 310 308 296 293 293 294 292 291 291 291 291 291 291 291 292 294 293 292 295 295 295 297 301 304 305 305 305 303 301 301 301
300 301 302 302 302 302 302 301 302 301 301 304 306 305 294 293 292 292 293 292 291 290 291 290 289 289 289 289 290 292 291 291 294 297 294 296 300 302 303 302 302 303 302 299
297 296 294 298 298 295 295 295 296 296 297 297 300 294 292 291 291 290 291 291 291 289 289 290 288 287 287 287 287 287 289 289 289 290 293 293 297 298 298 300 301 300 301 299
294 294 290 294 287 289 294 294 293 295 294 293 292 291 291 291 290 289 289 289 288 288 287 287 286 286 286 287 286 286 287 288 288 289 290 294 293 297 298 296 295 297 297 297
294 294 287 287 282 293 295 291 290 291 292 290 291 293 292 290 289 288 288 288 288 287 287 286 285 284 284 285 285 285 285 286 287 287 287 289 292 293 296 298 296 293 292 294
293 294 294 282 295 291 292 289 291 290 286 288 289 288 288 290 286 287 288 288 287 287 286 285 285 284 284 285 284 284 284 284 284 285 286 286 288 290 293 294 295 294 292 291
280 278 288 288 288 287 289 289 289 286 288 288 291 290 290 289 287 288 288 287 286 286 285 284 284 283 283 283 283 283 283 284 284 284 284 285 286 287 290 293 294 291 291 293
287 282 279 275 280 284 288 289 288 289 290 289 289 290 290 288 288 287 287 286 285 285 284 284 283 283 283 283 281 281 282 282 282 283 283 284 285 285 287 289 291 293 290 289
286 286 283 284 284 289 290 290 290 291 289 289 289 289 290 288 287 286 285 285 284 282 282 282 281 282 283 282 281 281 281 280 281 282 283 282 283 284 284 286 289 290 291 289
289 289 289 289 290 290 290 290 290 290 289 289 289 289 287 286 285 283 283 282 281 281 280 279 279 279 280 280 278 278 278 276 276 278 280 280 281 281 282 284 286 288 290 290
289 288 287 289 290 290 290 290 290 289 289 289 288 286 285 283 283 281 280 279 278 278 278 277 276 275 276 276 275 274 274 273 274 275 277 277 278 279 280 280 283 285 288 289
290 290 289 289 290 289 289 289 289 289 288 287 286 286 283 281 279 277 277 277 276 275 275 274 273 272 272 271 271 270 270 270 270 272 274 274 273 276 277 278 280 282 284 287
Wind_Speed
5 4 9 22 14 2 3 6 8 9 8 3 15 18 18 27 32 33 35 39 47 52 53 47 43 38 35 32 35 42 41 41 43 46 49 51 51 48 47 46 45 43 43 42
3 7 14 3 3 7 9 13 14 14 16 5 14 22 16 17 23 41 39 37 41 41 47 45 41 38 34 30 29 32 39 41 43 46 48 52 52 51 48 48 48 47 46 44
12 5 7 5 4 6 8 6 16 15 6 5 9 14 12 9 22 36 41 41 38 40 41 39 36 36 31 30 29 30 33 39 43 46 49 52 53 52 52 54 51 50 48 47
7 6 7 4 6 12 19 11 14 9 4 5 4 11 16 22 20 10 28 28 33 29 29 31 30 32 31 26 23 24 28 33 41 45 49 52 55 56 56 53 51 50 49 49
8 5 4 6 10 7 10 3 6 2 4 4 4 4 2 3 5 11 10 27 23 17 20 22 27 33 34 29 26 26 28 32 39 43 45 50 53 55 55 52 51 51 49 49
7 1 6 9 7 10 4 2 3 4 2 6 13 11 3 5 5 4 5 10 13 16 14 23 32 37 40 31 22 22 28 33 36 41 44 46 49 55 55 53 50 48 49 49
1 5 4 4 2 1 2 5 4 4 0 9 2 6 12 3 8 7 9 17 17 6 19 31 37 38 38 40 31 26 26 28 33 38 40 43 45 50 52 51 49 47 46 49
3 14 8 6 8 7 6 8 6 8 5 13 1 9 6 9 7 10 3 9 3 7 20 33 37 39 35 38 34 26 26 26 25 27 32 36 40 44 46 48 49 48 44 43
4 7 2 5 3 5 4 6 3 2 2 3 11 19 9 6 1 2 4 5 5 24 37 36 34 35 32 35 31 23 23 20 21 22 23 27 33 40 43 47 48 47 45 42
1 10 5 1 4 2 6 2 1 2 2 6 12 7 15 11 17 14 8 10 32 39 42 44 34 31 32 30 26 21 22 23 21 22 24 27 30 34 40 44 47 47 45 43
4 1 5 3 5 8 2 3 4 3 5 9 11 13 14 10 2 6 3 15 26 35 34 27 33 27 23 19 19 24 27 27 26 28 30 33 34 36 39 43 45 46 45 46
7 4 8 17 11 9 8 10 11 12 10 10 17 23 25 19 15 11 26 28 32 31 29 28 27 28 26 26 22 21 23 23 23 28 30 34 38 40 39 41 43 46 48 48
4 4 9 6 1 4 4 4 9 12 14 21 16 13 15 22 16 28 24 25 28 26 26 28 29 33 34 33 32 28 22 22 25 27 27 28 31 35 40 40 43 45 48 51
3 6 16 16 19 13 7 9 7 5 5 9 11 16 16 16 20 16 20 22 23 24 30 32 34 37 37 38 39 36 33 28 27 26 29 30 29 30 32 38 41 46 47 48
2 10 17 15 11 16 14 13 18 22 21 19 24 24 12 10 12 19 16 17 22 24 28 30 32 37 40 40 41 42 42 38 35 32 29 29 31 29 29 31 34 40 45 48
2 3 7 19 22 13 17 18 18 20 24 22 22 18 5 5 11 15 12 17 23 24 21 28 33 36 38 40 40 41 44 44 43 40 37 33 30 28 31 31 32 36 39 45
3 2 2 14 19 11 13 14 17 13 11 2 6 3 3 7 10 17 17 20 23 27 26 24 29 32 36 39 42 44 43 44 43 42 40 37 33 30 27 27 30 35 36 40
11 10 4 10 4 3 8 4 5 7 5 6 5 3 6 6 11 20 12 10 25 28 32 33 34 34 34 36 39 42 42 45 45 44 44 42 40 34 32 30 28 29 32 35
15 9 3 2 6 9 9 4 3 3 4 6 5 8 10 11 14 8 13 22 29 30 30 29 31 33 35 37 39 43 45 45 46 47 45 41 42 43 36 31 32 27 30 32
3 9 5 1 5 5 3 4 8 2 4 10 13 8 6 7 2 10 23 28 28 31 33 32 33 35 36 38 41 44 48 50 51 51 51 50 42 42 42 34 29 28 28 30
3 3 7 8 6 7 3 7 2 4 5 11 13 15 15 5 9 25 33 32 30 32 33 35 36 38 41 41 43 48 50 53 53 54 53 51 50 41 37 38 35 29 27 25
5 4 3 3 2 8 6 2 4 6 17 18 17 23 23 23 24 27 32 34 34 34 35 35 37 41 42 44 46 50 52 52 54 56 57 53 50 47 39 34 35 35 29 28
3 6 4 8 7 7 10 19 37 28 22 26 25 28 24 23 29 31 33 36 38 38 39 39 41 45 48 51 49 53 57 54 56 58 58 57 54 51 45 38 36 33 34 32
6 12 10 13 16 16 31 38 29 33 35 37 33 24 21 23 29 31 35 39 41 44 44 44 45 50 56 55 54 56 58 57 56 57 60 57 55 52 44 43 38 37 34 35
9 5 6 15 17 22 29 32 33 29 30 30 26 20 22 23 32 27 35 41 41 45 48 42 44 51 58 58 59 59 59 57 57 56 57 57 53 51 47 39 41 41 37 34
17 18 11 13 25 20 27 36 28 23 21 17 22 28 27 26 33 33 41 41 42 46 49 48 49 49 56 56 61 59 56 53 52 54 53 51 48 47 44 40 39 41 38 34
Wind_Direction
181 140 198 223 203 242 182 233 247 257 262 265 262 265 264 269 283 273 269 271 274 276 287 289 291 293 292 286 272 261 257 251 241 239 238 236 236 235 234 233 233 233 232 231
52 226 230 39 150 234 250 261 267 274 265 221 268 274 268 257 254 263 270 272 269 280 288 294 298 298 297 296 284 269 258 251 246 242 241 238 237 236 237 236 231 229 229 230
215 206 213 207 151 239 226 229 259 263 310 253 298 278 236 268 254 261 266 263 273 279 290 299 310 312 310 307 301 284 265 252 247 243 240 236 235 235 233 232 231 229 229 228
238 246 193 151 216 207 268 223 255 266 348 262 2 296 293 276 265 248 268 273 280 288 296 313 327 329 327 323 309 289 270 260 252 246 242 238 236 233 236 236 234 231 230 230
239 178 159 183 222 148 239 206 243 188 205 327 216 250 359 84 259 265 263 273 285 312 340 357 359 355 338 320 313 298 272 255 251 247 244 242 238 237 237 236 235 232 230 230
242 270 176 214 212 189 89 67 45 48 76 269 199 200 13 153 204 311 296 270 325 345 15 17 9 1 357 331 302 296 280 262 252 250 244 244 240 239 237 234 235 234 232 231
235 216 240 190 188 124 141 95 308 317 354 251 290 224 236 233 233 207 253 287 315 37 28 8 2 354 349 344 325 295 279 270 257 250 247 246 242 240 241 240 239 236 234 232
223 289 183 170 194 185 187 170 173 233 247 287 76 248 257 211 237 250 301 275 261 16 359 351 355 348 348 344 332 317 287 275 270 263 258 255 250 247 245 244 242 243 242 240
206 263 218 211 144 147 174 178 220 287 36 285 268 279 279 249 218 286 47 267 356 340 327 333 337 336 343 342 328 328 317 301 288 277 268 263 257 250 246 246 245 245 246 245
277 295 239 266 134 180 171 213 39 356 235 256 277 292 260 303 297 309 357 7 325 327 327 330 334 346 343 336 335 342 348 334 315 294 281 271 263 257 253 248 247 248 248 248
75 243 263 340 193 191 148 234 228 296 214 238 259 267 270 263 325 300 311 339 335 337 345 341 335 347 341 328 323 323 325 315 308 305 296 286 275 260 253 252 252 250 249 249
213 199 243 257 240 196 194 232 232 248 257 238 250 252 287 296 297 335 22 33 11 13 10 8 6 1 360 0 352 334 329 326 316 307 300 293 287 283 276 270 262 256 252 251
186 220 264 283 1 30 197 225 247 278 280 259 262 268 276 298 343 16 18 24 17 9 0 356 356 359 357 354 355 352 346 336 328 318 302 294 291 285 280 277 270 263 260 254
180 250 254 268 276 309 272 273 314 304 271 288 269 298 303 357 346 19 17 17 16 12 5 3 358 355 352 351 349 350 349 349 343 333 323 310 299 292 286 282 275 270 264 258
19 267 272 289 308 297 290 277 281 271 268 266 285 280 308 5 348 339 343 3 7 5 357 354 353 352 350 347 342 342 342 340 343 344 340 329 312 295 285 282 279 273 268 264
124 275 328 296 287 288 286 281 270 272 274 270 266 275 35 5 338 343 332 337 347 346 346 349 347 349 348 343 340 336 336 336 334 336 339 339 328 306 292 284 279 274 273 268
272 238 322 278 288 323 297 259 263 265 283 275 262 49 340 330 338 330 314 311 323 334 337 335 339 345 343 337 335 333 331 333 333 330 331 333 337 332 317 291 278 272 268 267
242 239 222 269 11 251 256 96 101 106 85 78 102 194 246 284 295 319 309 323 326 331 335 336 338 337 335 331 332 329 330 329 328 328 326 322 325 332 333 323 296 282 274 266
218 230 259 219 204 280 292 21 73 96 224 176 189 230 244 278 296 285 310 316 315 321 326 327 328 328 329 333 334 331 330 327 324 324 323 322 320 319 322 327 321 301 282 270
145 211 195 25 239 235 225 253 240 100 277 220 208 227 226 255 312 302 318 316 311 316 317 316 319 320 324 328 328 328 329 329 326 322 318 318 318 313 310 313 312 311 293 277
15 12 202 236 260 282 220 247 189 97 247 236 218 240 227 213 247 297 306 305 306 307 308 311 312 314 317 322 323 323 324 324 323 319 314 312 310 306 300 298 303 298 291 291
176 164 225 74 37 289 199 321 172 239 293 278 268 267 244 258 286 293 296 299 301 301 302 304 305 307 309 313 314 315 316 320 318 316 310 307 305 304 301 296 288 291 285 278
270 199 199 185 222 245 277 273 285 288 283 283 277 281 254 272 284 290 293 299 301 302 302 303 304 304 305 309 309 309 311 312 311 309 307 303 300 299 297 294 292 282 282 274
244 239 246 262 260 258 266 276 278 292 287 290 289 268 274 275 288 294 300 301 302 304 304 305 303 303 304 306 305 304 306 306 305 302 301 299 298 296 295 292 284 281 272 271
235 181 226 253 266 268 270 268 277 283 289 286 275 276 287 289 293 299 297 299 300 301 302 300 296 297 300 302 301 302 302 303 301 300 297 296 295 294 293 287 282 277 276 270
239 247 243 253 260 273 274 279 287 288 281 264 271 282 289 298 302 304 302 302 301 301 301 298 296 295 297 299 300 300 300 300 298 296 294 294 294 291 289 286 279 277 273 277